Flag for U.S.A. Weather past 2 weeks in Denver, Colorado, U.S.A.

Now
89 °F

Broken clouds.


Feels Like: 86 °F
Forecast: 64 / 86 °F
Wind: 9 mph from Southeast

Location: Buckley Air Force Base

Current Time: Jul 25, 2014 at 12:31:27 PM

Latest Report: Jul 25, 2014 at 11:58 AM


Visibility: 10 mi

Pressure: 29.86 "Hg

Humidity: 24%

Dew point: 48 °F

Location of DenverLocation

Historic Weather in Denver — Graph

°F

Denver temperature yesterday

Maximum temperature yesterday: 93 °F (at 3:58 PM)
Minimum temperature yesterday: 67 °F (at 5:58 AM)
Average temperature yesterday: 79 °F

Past Weeks' High & Low Weather Summary

 TemperatureHumidityPressure
High93 °F (Jul 24, 3:58 PM)100% (Jul 12, 1:58 AM)30.25 "Hg (Jul 12, 1:58 AM)
Low55 °F (Jul 17, 12:58 AM)14% (Jul 20, 1:58 PM)29.74 "Hg (Jul 10, 5:58 PM)
Average72 °F55%29.96 "Hg
* Reported Jul 10 10:58 AM — Jul 25 10:58 AM, Denver, Weather by CustomWeather, © 2014

Note: Actual official high and low records may vary slightly from our data, if they occured in-between our weather recording intervals... More about our weather records

Advertising

Denver weather history for previous 24 hours

 ConditionsComfort  
Time TempWeatherWind HumidityBarometerVisibility
10:58 AM
Jul 25
87 °FScattered clouds.7 mph25%29.88 "Hg10 mi
9:58 AM85 °FScattered clouds.3 mph25%29.88 "Hg10 mi
8:58 AM79 °FScattered clouds.8 mph40%29.90 "Hg10 mi
7:58 AM72 °FBroken clouds.6 mph49%29.88 "Hg10 mi
6:58 AM68 °FBroken clouds.8 mph54%29.89 "Hg10 mi
5:58 AM68 °FPartly cloudy.6 mph52%29.86 "Hg10 mi
4:58 AM71 °FOvercast.7 mph49%29.83 "Hg10 mi
3:58 AM69 °FOvercast.6 mph52%29.80 "Hg10 mi
2:58 AM68 °FPartly cloudy.8 mph56%29.82 "Hg10 mi
1:58 AM69 °FPartly cloudy.7 mph53%29.83 "Hg10 mi
12:58 AM70 °FPartly cloudy.9 mph53%29.84 "Hg10 mi
11:58 PM
Jul 24
69 °FPartly cloudy.8 mph55%29.83 "Hg10 mi
10:58 PM70 °FPartly cloudy.13 mph54%29.85 "Hg10 mi
9:58 PM72 °FPartly cloudy.12 mph48%29.86 "Hg10 mi
8:58 PM74 °FPartly sunny.21 mph43%29.86 "Hg10 mi
7:58 PM80 °FThundershowers. Partly sunny.17 mph39%29.86 "Hg10 mi
6:58 PM82 °FPartly sunny.6 mph35%29.83 "Hg10 mi
5:58 PM84 °FPartly sunny.16 mph29%29.83 "Hg10 mi
4:58 PM92 °FPartly sunny.2 mph21%29.79 "Hg10 mi
3:58 PM93 °FBroken clouds.5 mph19%29.80 "Hg10 mi
2:58 PM92 °FBroken clouds.5 mph22%29.83 "Hg10 mi
2:01 PM90 °FPassing clouds.5 mph20%30.11 "Hg10 mi
1:58 PM86 °FThunderstorms. Broken clouds.10 mph21%29.85 "Hg10 mi
12:58 PM89 °FScattered showers. Broken clouds.3 mph26%29.85 "Hg10 mi
Weather by CustomWeather, © 2014

See weather overviewHow to use our weather pages